Погода в Барсуках

Россия / Смоленская область     54°21′54″N   32°03′16″E
темп.,
°C
ветер,
м/с
пор.,
м/с
влажн.,
%
обл.,
%
осадки,
мм/ч
давл.,
гПа
погр.,
м
7 марта, вс
вс700:00−7зюз6148341 0.0 1016388
03:00−5юз8168670 0.0 1012617
06:00−4юз101782100 0.0 1007885
09:00−3зюз111893100 0.3 10021099
12:000зюз121994100 1.4 10001292
15:00−3зсз4896100 4.3 999414
18:00−2зсз81574100 1.0 10001077
21:00−6зюз5118150 1.0 1002204
8 марта, пн
пн800:00−6з5138275 0.0 1002353
03:00−7з5129049 0.0 1002282
06:00−8з5129213 0.0 1002291
09:00−7зсз5109542 0.0 1004405
12:00−4сз578398 0.1 1006864
15:00−5сз678394 0.1 1008961
18:00−7сз498998 0.1 1010422
21:00−10ссз489284 0.1 1013165
9 марта, вт
вт900:00−12ссз369484 0.0 1015113
03:00−14ссз349571 0.0 101664
06:00−15ссз34960 0.0 101864
09:00−14ссз36950 0.0 1020194
12:00−9ссз35850 0.0 1021557
15:00−8сз468027 0.0 1021869
18:00−10сз238792 0.0 102228
21:00−13зсз228760 0.0 102421
10 марта, ср
ср1000:00−13юз228868 0.0 102420
03:00−12ююз238984 0.0 102428
06:00−12ююз3690100 0.0 1023126
09:00−9юз5991100 0.0 1024291
12:00−5юз5987100 0.0 1023545
15:00−4зюз5884100 0.0 1023756
18:00−5юз3589100 0.0 1022110
21:00−8юз348996 0.0 102339
11 марта, чт
чт1100:00−10юз338888 0.0 102428
03:00−9ююз348993 0.0 102445
06:00−10ююз3489100 0.0 102459
09:00−8ю369499 0.0 1024208
12:00−4ю469119 0.0 1023355
15:00−2ююз57829 0.0 1022976
18:00−4ю5108728 0.1 1021281
21:00−6ю6148847 0.1 1021384